Location: Kerentrech
(47.7567°N, 3.3595°W)
Time: 09:33:52
(UTC+00:00)

USA 215 - Pass Details

Date: 17 February 2020
Orbit: 1098 x 1110 km, 123.0° (Epoch: 08 March)

Event Time Altitude Azimuth Distance (km) Brightness Sun altitude
Rises 04:56:10 0° 64° (ENE) 3,921 7.4 -24.3°
Reaches altitude 10° 04:58:46 10° 58° (ENE) 2,964 6.4 -23.8°
Maximum altitude 05:04:49 42° 351° (N) 1,526 3.9 -22.8°
Enters shadow 05:07:21 30° 305° (NW) 1,862 4.1 -22.4°
